Location: Waco, TX
(31.5480°N, 97.1670°W)
Time: 12:34:59
(UTC-06:00)

ISS - Pass Details

Date: 16 February 2018
Orbit: 402 x 407 km, 51.6° (Epoch: 24 February)

Event Time Altitude Azimuth Distance (km) Brightness Sun altitude
Rises 09:19:20 0° 206° (SSW) 2,304 0.1 24.5°
Reaches altitude 10° 09:21:31 10° 196° (SSW) 1,448 -0.7 24.9°
Maximum altitude 09:24:29 33° 130° (SE) 692 -0.1 25.4°
Drops below altitude 10° 09:27:28 10° 64° (ENE) 1,453 -0.5 26.0°
Sets 09:29:39 0° 55° (NE) 2,314 0.2 26.4°
